WZZ701 LHBP-LDOS

Flight info

Callsign WZZ701
Flight time N/A
Altitude 24000
Route DUZLA DCT OSDUK
Aircraft A321/M-SDE3FGHIRWY/LB1

Departure

Time 2026-05-06 16:54
Airport Budapest Liszt Ferenc International Airport (LHBP)

Arrival

Time N/A
Airport Osijek Airport (LDOS)
Time Latitude Longitude Altitude Speed Heading
2026-05-06 16:41 47.43552 19.25819 458 ft 0 kts 314°
2026-05-06 16:47 47.43544 19.25831 458 ft 4 kts 312°
2026-05-06 16:48 47.43526 19.25859 455 ft 4 kts 333°
2026-05-06 16:48 47.43517 19.25863 457 ft 0 kts 42°
2026-05-06 16:51 47.43526 19.25875 456 ft 4 kts 42°
2026-05-06 16:51 47.43554 19.25912 458 ft 7 kts 42°
2026-05-06 16:51 47.43598 19.25972 458 ft 10 kts 42°
2026-05-06 16:52 47.43663 19.26039 458 ft 13 kts 13°
2026-05-06 16:52 47.43744 19.25977 458 ft 14 kts 343°
2026-05-06 16:52 47.43831 19.26043 458 ft 16 kts 42°
2026-05-06 16:52 47.43920 19.26163 456 ft 18 kts 41°
2026-05-06 16:53 47.44020 19.26295 461 ft 19 kts 43°
2026-05-06 16:53 47.44069 19.26449 471 ft 15 kts 87°
2026-05-06 16:53 47.44022 19.26597 468 ft 19 kts 132°
2026-05-06 16:53 47.43797 19.26959 471 ft 91 kts 132°
2026-05-06 16:54 47.43179 19.27940 475 ft 165 kts 137°
2026-05-06 16:54 47.42399 19.29204 1330 ft 161 kts 137°
2026-05-06 16:54 47.41713 19.30553 2175 ft 172 kts 128°
2026-05-06 16:54 47.41075 19.32176 2661 ft 195 kts 125°
2026-05-06 16:55 47.40382 19.34041 3076 ft 221 kts 123°
2026-05-06 16:55 47.39598 19.36136 3620 ft 244 kts 126°
2026-05-06 16:55 47.38373 19.37939 4201 ft 257 kts 155°
2026-05-06 16:55 47.36666 19.38607 5114 ft 256 kts 183°
2026-05-06 16:56 47.34960 19.37955 6108 ft 257 kts 208°
2026-05-06 16:56 47.33382 19.36671 7096 ft 260 kts 210°
2026-05-06 16:56 47.31800 19.35353 8087 ft 263 kts 210°
2026-05-06 16:56 47.30197 19.34018 9079 ft 267 kts 210°
2026-05-06 16:57 47.28564 19.32666 10060 ft 271 kts 210°
2026-05-06 16:57 47.26868 19.31266 10587 ft 292 kts 210°
2026-05-06 16:57 47.25035 19.29755 11108 ft 309 kts 210°
2026-05-06 16:57 47.23130 19.28192 11911 ft 317 kts 210°
2026-05-06 16:58 47.21190 19.26606 12779 ft 322 kts 210°
2026-05-06 16:58 47.19218 19.24994 13658 ft 327 kts 210°
2026-05-06 16:58 47.17218 19.23356 14426 ft 331 kts 210°
2026-05-06 16:58 47.15190 19.21693 15233 ft 335 kts 210°
2026-05-06 16:59 47.13141 19.20015 16021 ft 340 kts 210°
2026-05-06 16:59 47.11061 19.18317 16813 ft 344 kts 210°
2026-05-06 16:59 47.08956 19.16599 17620 ft 348 kts 210°
2026-05-06 16:59 47.06827 19.14860 18380 ft 352 kts 210°
2026-05-06 17:00 47.04673 19.13107 19065 ft 356 kts 210°
2026-05-06 17:00 47.02494 19.11339 19763 ft 360 kts 210°
2026-05-06 17:00 47.00295 19.09555 20441 ft 364 kts 211°
2026-05-06 17:00 46.98068 19.07748 21142 ft 367 kts 211°
2026-05-06 17:01 46.95823 19.05927 21849 ft 371 kts 211°
2026-05-06 17:01 46.93553 19.04088 22558 ft 374 kts 211°
2026-05-06 17:01 46.91266 19.02234 23259 ft 378 kts 211°
2026-05-06 17:01 46.88957 19.00363 23728 ft 381 kts 211°
2026-05-06 17:02 46.86638 18.98489 23860 ft 381 kts 211°
2026-05-06 17:02 46.84363 18.96654 23889 ft 365 kts 211°
2026-05-06 17:02 46.82157 18.94883 23891 ft 359 kts 211°
2026-05-06 17:02 46.79974 18.93132 23900 ft 358 kts 211°
2026-05-06 17:03 46.77792 18.91379 23900 ft 358 kts 211°
2026-05-06 17:03 46.75612 18.89624 23896 ft 358 kts 211°
2026-05-06 17:03 46.73433 18.87871 23903 ft 358 kts 211°
2026-05-06 17:03 46.71256 18.86123 23901 ft 358 kts 211°
2026-05-06 17:04 46.69076 18.84374 23900 ft 357 kts 211°
2026-05-06 17:04 46.66900 18.82631 23896 ft 358 kts 211°
2026-05-06 17:04 46.64718 18.80886 23894 ft 358 kts 211°
2026-05-06 17:04 46.62535 18.79140 23897 ft 358 kts 211°
2026-05-06 17:05 46.60381 18.77419 23910 ft 358 kts 211°
2026-05-06 17:05 46.58198 18.75680 23914 ft 359 kts 211°
2026-05-06 17:05 46.56007 18.73936 23908 ft 359 kts 211°
2026-05-06 17:05 46.53821 18.72193 23920 ft 359 kts 211°
2026-05-06 17:06 46.51632 18.70445 23920 ft 359 kts 211°
2026-05-06 17:06 46.49444 18.68702 23921 ft 359 kts 211°
2026-05-06 17:06 46.47251 18.66959 23923 ft 359 kts 211°
2026-05-06 17:06 46.45059 18.65219 23923 ft 359 kts 210°
2026-05-06 17:07 46.42869 18.63482 23923 ft 359 kts 210°
2026-05-06 17:07 46.41385 18.62307 23923 ft 359 kts 210°
2026-05-06 17:07 46.39195 18.60574 23924 ft 359 kts 210°
2026-05-06 17:07 46.36977 18.58821 23903 ft 371 kts 210°
2026-05-06 17:08 46.34685 18.57012 23911 ft 378 kts 210°
2026-05-06 17:08 46.32368 18.55185 23904 ft 381 kts 210°
2026-05-06 17:08 46.30041 18.53352 23900 ft 381 kts 210°
2026-05-06 17:08 46.27706 18.51518 23909 ft 381 kts 210°
2026-05-06 17:09 46.25380 18.49691 23916 ft 381 kts 210°
2026-05-06 17:09 46.23057 18.47864 23816 ft 374 kts 210°
2026-05-06 17:09 46.20801 18.46087 22658 ft 367 kts 210°
2026-05-06 17:09 46.18575 18.44332 21422 ft 361 kts 210°
2026-05-06 17:10 46.16384 18.42613 20249 ft 356 kts 210°
2026-05-06 17:10 46.14226 18.40926 19122 ft 351 kts 210°
2026-05-06 17:10 46.12071 18.39239 18648 ft 348 kts 210°
2026-05-06 17:10 46.09982 18.37604 18320 ft 340 kts 210°
2026-05-06 17:11 46.07897 18.35974 17696 ft 340 kts 210°
2026-05-06 17:11 46.05834 18.34365 17266 ft 334 kts 209°
2026-05-06 17:11 46.03807 18.32789 16850 ft 328 kts 209°
2026-05-06 17:11 46.01815 18.31243 16439 ft 323 kts 209°
2026-05-06 17:12 45.99855 18.29716 16040 ft 318 kts 209°
2026-05-06 17:12 45.97921 18.28205 15638 ft 314 kts 209°
2026-05-06 17:12 45.96018 18.26722 15256 ft 310 kts 209°
2026-05-06 17:12 45.94132 18.25256 14856 ft 306 kts 209°
2026-05-06 17:13 45.92273 18.23814 14459 ft 303 kts 209°
2026-05-06 17:13 45.90427 18.22383 14089 ft 300 kts 208°
2026-05-06 17:13 45.88602 18.20968 13703 ft 297 kts 208°
2026-05-06 17:13 45.86794 18.19568 13306 ft 293 kts 208°
2026-05-06 17:14 45.85011 18.18189 12934 ft 289 kts 208°
2026-05-06 17:14 45.83248 18.16830 12569 ft 286 kts 208°
2026-05-06 17:14 45.81501 18.15603 12212 ft 282 kts 199°
2026-05-06 17:14 45.79552 18.15158 11828 ft 281 kts 180°
2026-05-06 17:15 45.77664 18.15694 11444 ft 283 kts 161°
2026-05-06 17:15 45.75981 18.17160 11053 ft 287 kts 141°
2026-05-06 17:15 45.74538 18.19136 10651 ft 287 kts 139°
2026-05-06 17:15 45.73103 18.21117 10243 ft 286 kts 140°
2026-05-06 17:16 45.71684 18.23075 9948 ft 282 kts 140°
2026-05-06 17:16 45.70272 18.25020 9548 ft 281 kts 140°
2026-05-06 17:16 45.68868 18.26947 9149 ft 279 kts 140°
2026-05-06 17:16 45.67471 18.28862 8746 ft 278 kts 140°
2026-05-06 17:17 45.66080 18.30767 8358 ft 276 kts 139°
2026-05-06 17:17 45.64699 18.32656 7992 ft 274 kts 139°
2026-05-06 17:17 45.63323 18.34540 7613 ft 273 kts 139°
2026-05-06 17:17 45.61956 18.36410 7238 ft 272 kts 139°
2026-05-06 17:18 45.60589 18.38276 6860 ft 272 kts 139°
2026-05-06 17:18 45.59223 18.40137 6477 ft 270 kts 139°
2026-05-06 17:18 45.57908 18.41931 6170 ft 250 kts 139°
2026-05-06 17:18 45.56718 18.43564 6040 ft 223 kts 139°
2026-05-06 17:19 45.55765 18.45151 5867 ft 204 kts 125°
2026-05-06 17:19 45.55199 18.46980 5446 ft 201 kts 114°
2026-05-06 17:19 45.54718 18.48842 4946 ft 200 kts 114°
2026-05-06 17:19 45.54222 18.50691 4501 ft 200 kts 115°
2026-05-06 17:20 45.53728 18.52545 4192 ft 200 kts 114°
2026-05-06 17:20 45.53241 18.54401 3927 ft 200 kts 114°
2026-05-06 17:20 45.52755 18.56261 3650 ft 200 kts 114°
2026-05-06 17:20 45.52272 18.58116 3389 ft 199 kts 114°
2026-05-06 17:21 45.51788 18.59967 3131 ft 199 kts 113°
2026-05-06 17:21 45.51308 18.61806 2864 ft 196 kts 112°
2026-05-06 17:21 45.50834 18.63617 2604 ft 194 kts 112°
2026-05-06 17:21 45.50367 18.65405 2368 ft 189 kts 113°
2026-05-06 17:22 45.49919 18.67114 2124 ft 179 kts 112°
2026-05-06 17:22 45.49503 18.68705 1900 ft 161 kts 114°
2026-05-06 17:22 45.49128 18.70136 1700 ft 146 kts 113°
2026-05-06 17:22 45.48778 18.71470 1496 ft 141 kts 114°
2026-05-06 17:23 45.48439 18.72758 1316 ft 137 kts 113°
2026-05-06 17:23 45.48111 18.74015 1132 ft 137 kts 113°
2026-05-06 17:23 45.47784 18.75285 976 ft 135 kts 112°
2026-05-06 17:23 45.47448 18.76531 804 ft 131 kts 114°
2026-05-06 17:24 45.47130 18.77707 611 ft 127 kts 111°
2026-05-06 17:24 45.46828 18.78892 428 ft 128 kts 111°
2026-05-06 17:24 45.46518 18.80076 301 ft 124 kts 111°
2026-05-06 17:24 45.46245 18.81094 295 ft 105 kts 110°
2026-05-06 17:25 45.45886 18.82440 528 ft 171 kts 112°
2026-05-06 17:25 45.45477 18.84084 1553 ft 181 kts 111°
2026-05-06 17:25 45.45056 18.85890 1812 ft 196 kts 110°
2026-05-06 17:25 45.44699 18.87743 1857 ft 193 kts 109°
2026-05-06 17:26 45.43924 18.89228 1851 ft 188 kts 152°
2026-05-06 17:26 45.42686 18.89444 1806 ft 183 kts 199°
2026-05-06 17:26 45.41782 18.88243 1820 ft 185 kts 248°
2026-05-06 17:26 45.41863 18.86447 1851 ft 190 kts 295°
2026-05-06 17:27 45.42551 18.84837 1998 ft 191 kts 300°
2026-05-06 17:27 45.43180 18.83162 1918 ft 191 kts 294°
2026-05-06 17:27 45.43763 18.81462 1715 ft 190 kts 293°
2026-05-06 17:27 45.44301 18.79759 1638 ft 187 kts 290°
2026-05-06 17:28 45.44788 18.78028 1746 ft 188 kts 289°
2026-05-06 17:28 45.45273 18.76292 1796 ft 189 kts 289°
2026-05-06 17:28 45.45761 18.74545 1830 ft 190 kts 290°
2026-05-06 17:28 45.46251 18.72792 1832 ft 191 kts 289°
2026-05-06 17:29 45.47031 18.71352 1785 ft 181 kts 333°
2026-05-06 17:29 45.48190 18.71497 1594 ft 171 kts 36°
2026-05-06 17:29 45.48910 18.72734 1478 ft 158 kts 66°
2026-05-06 17:29 45.48923 18.74191 1336 ft 147 kts 118°
2026-05-06 17:30 45.48284 18.75268 1086 ft 136 kts 139°
2026-05-06 17:30 45.47636 18.76221 947 ft 132 kts 129°
2026-05-06 17:30 45.47226 18.77376 673 ft 129 kts 111°
2026-05-06 17:30 45.46920 18.78563 509 ft 128 kts 113°
2026-05-06 17:31 45.46604 18.79746 326 ft 128 kts 111°
2026-05-06 17:31 45.46314 18.80824 294 ft 103 kts 111°
2026-05-06 17:31 45.46017 18.81946 306 ft 160 kts 113°
2026-05-06 17:31 45.45612 18.83549 1186 ft 178 kts 111°
2026-05-06 17:32 45.45217 18.85324 1763 ft 200 kts 108°
2026-05-06 17:32 45.44804 18.87172 1834 ft 196 kts 116°
2026-05-06 17:32 45.43872 18.88542 1913 ft 193 kts 158°
2026-05-06 17:32 45.43416 18.88728 1921 ft 192 kts 174°
2026-05-06 17:33 45.42656 18.88629 1878 ft 191 kts 198°
2026-05-06 17:33 45.41707 18.87411 1819 ft 191 kts 245°
2026-05-06 17:33 45.41655 18.85548 1826 ft 195 kts 287°
2026-05-06 17:34 45.42181 18.83791 1899 ft 196 kts 292°
2026-05-06 17:34 45.42715 18.82005 1863 ft 197 kts 290°
2026-05-06 17:34 45.43214 18.80202 1808 ft 194 kts 289°
2026-05-06 17:34 45.43679 18.78425 1745 ft 191 kts 290°
2026-05-06 17:35 45.44158 18.76675 1694 ft 189 kts 288°
2026-05-06 17:35 45.44590 18.74904 1745 ft 190 kts 287°
2026-05-06 17:35 45.45031 18.73129 1816 ft 191 kts 288°
2026-05-06 17:36 45.46657 18.70862 1594 ft 163 kts
2026-05-06 17:36 45.47535 18.71677 1390 ft 150 kts 62°
2026-05-06 17:36 45.47827 18.73072 1395 ft 144 kts 82°
2026-05-06 17:36 45.47926 18.74472 1220 ft 140 kts 94°
2026-05-06 17:37 45.47711 18.75782 969 ft 134 kts 114°
2026-05-06 17:37 45.47338 18.76968 744 ft 131 kts 114°
2026-05-06 17:37 45.47022 18.78171 546 ft 129 kts 111°
2026-05-06 17:37 45.46706 18.79364 375 ft 129 kts 111°
2026-05-06 17:38 45.46400 18.80510 298 ft 111 kts 111°
2026-05-06 17:38 45.46097 18.81686 362 ft 160 kts 111°
2026-05-06 17:38 45.45694 18.83270 1263 ft 179 kts 111°
2026-05-06 17:38 45.45259 18.85053 1656 ft 199 kts 110°
2026-05-06 17:39 45.44820 18.86894 1830 ft 193 kts 112°
2026-05-06 17:39 45.44101 18.88464 1865 ft 191 kts 142°
2026-05-06 17:39 45.42891 18.88992 1740 ft 185 kts 187°
2026-05-06 17:39 45.41812 18.88109 1739 ft 185 kts 233°
2026-05-06 17:40 45.41511 18.86352 1751 ft 190 kts 278°
2026-05-06 17:40 45.41990 18.84601 1839 ft 191 kts 290°
2026-05-06 17:40 45.42469 18.82836 1836 ft 191 kts 289°
2026-05-06 17:40 45.42947 18.81106 1850 ft 190 kts 290°
2026-05-06 17:41 45.43449 18.79368 1824 ft 189 kts 291°
2026-05-06 17:41 45.43958 18.77647 1776 ft 189 kts 291°
2026-05-06 17:41 45.44466 18.75922 1782 ft 189 kts 291°
2026-05-06 17:41 45.44976 18.74194 1806 ft 190 kts 291°
2026-05-06 17:42 45.45490 18.72462 1804 ft 190 kts 291°
2026-05-06 17:42 45.46207 18.70990 1697 ft 177 kts 318°
2026-05-06 17:42 45.47298 18.70309 1398 ft 168 kts 354°
2026-05-06 17:42 45.48328 18.70773 1274 ft 155 kts 43°
2026-05-06 17:43 45.48683 18.72060 1208 ft 139 kts 101°
2026-05-06 17:43 45.48345 18.73309 1316 ft 136 kts 115°
2026-05-06 17:43 45.47977 18.74548 1105 ft 134 kts 113°
2026-05-06 17:43 45.47654 18.75781 915 ft 132 kts 112°
2026-05-06 17:44 45.47334 18.76993 778 ft 131 kts 111°
2026-05-06 17:44 45.47013 18.78191 542 ft 128 kts 111°
2026-05-06 17:44 45.46701 18.79387 372 ft 129 kts 112°
2026-05-06 17:44 45.46395 18.80537 297 ft 112 kts 111°
2026-05-06 17:45 45.46137 18.81510 297 ft 120 kts 111°
2026-05-06 17:45 45.45737 18.82983 671 ft 178 kts 112°
2026-05-06 17:45 45.45281 18.84674 1647 ft 195 kts 112°
2026-05-06 17:45 45.44793 18.86454 1709 ft 190 kts 113°
2026-05-06 17:46 45.44264 18.88170 1854 ft 189 kts 123°
2026-05-06 17:46 45.43258 18.89272 1953 ft 187 kts 165°
2026-05-06 17:46 45.41998 18.89124 1931 ft 186 kts 206°
2026-05-06 17:46 45.41187 18.87766 1827 ft 186 kts 252°
2026-05-06 17:47 45.41288 18.85955 1802 ft 189 kts 291°
2026-05-06 17:47 45.41791 18.84221 1879 ft 190 kts 290°
2026-05-06 17:47 45.42274 18.82466 1894 ft 191 kts 290°
2026-05-06 17:47 45.42757 18.80714 1826 ft 190 kts 290°
2026-05-06 17:48 45.43249 18.78972 1765 ft 189 kts 290°
2026-05-06 17:48 45.43722 18.77254 1709 ft 189 kts 290°
2026-05-06 17:48 45.44224 18.75525 1727 ft 189 kts 291°
2026-05-06 17:48 45.44738 18.73794 1727 ft 190 kts 292°
2026-05-06 17:49 45.45274 18.72078 1712 ft 185 kts 296°
2026-05-06 17:49 45.46152 18.70940 1626 ft 164 kts 340°
2026-05-06 17:49 45.47221 18.71041 1523 ft 154 kts 30°
2026-05-06 17:49 45.47806 18.72172 1515 ft 142 kts 80°
2026-05-06 17:50 45.47915 18.73538 1400 ft 137 kts 88°
2026-05-06 17:50 45.47893 18.74879 1132 ft 134 kts 100°
2026-05-06 17:50 45.47608 18.76119 863 ft 130 kts 114°
2026-05-06 17:50 45.47251 18.77291 664 ft 128 kts 111°
2026-05-06 17:51 45.46943 18.78482 502 ft 128 kts 112°
2026-05-06 17:51 45.46624 18.79676 331 ft 129 kts 112°
2026-05-06 17:51 45.46332 18.80775 293 ft 104 kts 110°
2026-05-06 17:51 45.46067 18.81776 295 ft 139 kts 110°
2026-05-06 17:52 45.45655 18.83299 992 ft 173 kts 112°
2026-05-06 17:52 45.45195 18.84996 1686 ft 195 kts 112°
2026-05-06 17:52 45.44701 18.86755 1853 ft 190 kts 114°
2026-05-06 17:52 45.43957 18.88258 1906 ft 187 kts 147°
2026-05-06 17:53 45.42732 18.88525 1852 ft 183 kts 199°
2026-05-06 17:53 45.41828 18.87306 1787 ft 186 kts 248°
2026-05-06 17:53 45.41875 18.85501 1719 ft 188 kts 289°
2026-05-06 17:53 45.42367 18.83771 1713 ft 189 kts 291°
2026-05-06 17:54 45.42886 18.82054 1759 ft 190 kts 292°
2026-05-06 17:54 45.43387 18.80347 1793 ft 189 kts 290°
2026-05-06 17:54 45.43710 18.79169 1808 ft 189 kts 290°
2026-05-06 17:54 45.44181 18.77424 1821 ft 189 kts 289°
2026-05-06 17:55 45.44650 18.75676 1825 ft 189 kts 289°
2026-05-06 17:55 45.45229 18.73338 1843 ft 189 kts 288°
2026-05-06 17:55 45.45769 18.71732 1814 ft 171 kts 311°
2026-05-06 17:55 45.46779 18.71120 1631 ft 158 kts
2026-05-06 17:56 45.47440 18.71459 1467 ft 146 kts 39°
2026-05-06 17:56 45.47948 18.72621 1382 ft 138 kts 79°
2026-05-06 17:56 45.48041 18.73959 1221 ft 135 kts 93°
2026-05-06 17:56 45.47850 18.75241 996 ft 131 kts 112°
2026-05-06 17:57 45.47481 18.76419 822 ft 130 kts 113°
2026-05-06 17:57 45.47167 18.77617 599 ft 129 kts 111°
2026-05-06 17:57 45.46857 18.78794 450 ft 129 kts 112°
2026-05-06 17:57 45.46536 18.80001 304 ft 126 kts 112°
2026-05-06 17:58 45.46264 18.81026 296 ft 99 kts 111°
2026-05-06 17:58 45.45966 18.82138 302 ft 164 kts 112°
2026-05-06 17:58 45.45525 18.83784 1176 ft 184 kts 111°
2026-05-06 17:58 45.45168 18.85162 1684 ft 201 kts 110°
2026-05-06 18:00 45.44986 18.85947 1766 ft 201 kts 109°
2026-05-06 18:01 45.44425 18.87747 1664 ft 197 kts 124°
2026-05-06 18:01 45.43372 18.88897 1763 ft 196 kts 163°
2026-05-06 18:01 45.42049 18.88801 1731 ft 190 kts 204°
2026-05-06 18:01 45.41147 18.87499 1757 ft 189 kts 244°
2026-05-06 18:02 45.41098 18.85684 1690 ft 190 kts 292°
2026-05-06 18:02 45.41618 18.83962 1739 ft 189 kts 291°
2026-05-06 18:02 45.42123 18.82232 1789 ft 190 kts 291°
2026-05-06 18:02 45.42632 18.80511 1773 ft 188 kts 291°
2026-05-06 18:03 45.43130 18.78785 1763 ft 188 kts 291°
2026-05-06 18:03 45.43634 18.77066 1760 ft 188 kts 291°
2026-05-06 18:03 45.44150 18.75353 1760 ft 188 kts 292°
2026-05-06 18:03 45.44654 18.73628 1772 ft 189 kts 291°
2026-05-06 18:04 45.45126 18.71959 1757 ft 170 kts 291°
2026-05-06 18:04 45.45910 18.70850 1566 ft 159 kts 343°
2026-05-06 18:04 45.46931 18.71092 1314 ft 149 kts 36°
2026-05-06 18:04 45.47643 18.72113 1255 ft 144 kts 56°
2026-05-06 18:05 45.48087 18.73386 1269 ft 144 kts 75°
2026-05-06 18:05 45.48001 18.74763 1140 ft 135 kts 114°
2026-05-06 18:05 45.47610 18.75969 934 ft 132 kts 114°
2026-05-06 18:05 45.47283 18.77176 681 ft 129 kts 112°
2026-05-06 18:06 45.46966 18.78366 489 ft 128 kts 111°
2026-05-06 18:06 45.46657 18.79556 349 ft 129 kts 111°
2026-05-06 18:06 45.46362 18.80660 293 ft 106 kts 110°
2026-05-06 18:06 45.46066 18.81806 301 ft 165 kts 107°
2026-05-06 18:07 45.45620 18.83458 1227 ft 184 kts 111°
2026-05-06 18:07 45.45141 18.85262 1781 ft 203 kts 111°
2026-05-06 18:07 45.44661 18.87164 1860 ft 204 kts 111°
2026-05-06 18:07 45.44105 18.88943 1886 ft 191 kts 130°
2026-05-06 18:08 45.42990 18.89826 1845 ft 185 kts 174°
2026-05-06 18:08 45.41814 18.89280 1769 ft 183 kts 222°
2026-05-06 18:08 45.41320 18.87652 1714 ft 186 kts 270°
2026-05-06 18:08 45.41735 18.85912 1711 ft 188 kts 293°
2026-05-06 18:09 45.42224 18.84185 1694 ft 188 kts 291°
2026-05-06 18:09 45.42726 18.82470 1727 ft 188 kts 290°
2026-05-06 18:09 45.43211 18.80735 1730 ft 188 kts 290°
2026-05-06 18:09 45.43701 18.79010 1703 ft 187 kts 291°
2026-05-06 18:10 45.44190 18.77291 1748 ft 188 kts 290°
2026-05-06 18:10 45.44660 18.75558 1753 ft 188 kts 290°
2026-05-06 18:10 45.45138 18.73821 1811 ft 188 kts 290°
2026-05-06 18:10 45.45630 18.72173 1850 ft 168 kts 298°
2026-05-06 18:11 45.46502 18.71257 1754 ft 156 kts 350°
2026-05-06 18:11 45.47532 18.71536 1669 ft 151 kts 26°
2026-05-06 18:11 45.48294 18.72437 1496 ft 141 kts 55°
2026-05-06 18:11 45.48378 18.73714 1178 ft 132 kts 117°
2026-05-06 18:12 45.47940 18.74835 1020 ft 130 kts 118°
2026-05-06 18:12 45.47586 18.76031 805 ft 132 kts 112°
2026-05-06 18:12 45.47264 18.77233 655 ft 131 kts 107°
2026-05-06 18:12 45.46946 18.78467 504 ft 133 kts 110°
2026-05-06 18:13 45.46610 18.79726 325 ft 135 kts 108°
2026-05-06 18:13 45.46312 18.80855 298 ft 110 kts 111°
2026-05-06 18:13 45.46007 18.82021 305 ft 165 kts 108°
2026-05-06 18:13 45.45570 18.83643 1291 ft 183 kts 112°
2026-05-06 18:14 45.45080 18.85437 1611 ft 192 kts 113°
2026-05-06 18:14 45.44570 18.87156 1792 ft 187 kts 114°
2026-05-06 18:14 45.43981 18.88790 1790 ft 184 kts 135°
2026-05-06 18:14 45.42850 18.89498 1876 ft 184 kts 179°
2026-05-06 18:15 45.41720 18.88826 1835 ft 182 kts 226°
2026-05-06 18:15 45.41299 18.87161 1844 ft 186 kts 272°
2026-05-06 18:15 45.41719 18.85424 1865 ft 187 kts 291°
2026-05-06 18:15 45.42211 18.83703 1860 ft 188 kts 291°
2026-05-06 18:16 45.42711 18.81989 1860 ft 188 kts 290°
2026-05-06 18:16 45.43206 18.80272 1860 ft 187 kts 290°
2026-05-06 18:16 45.43678 18.78547 1860 ft 187 kts 289°
2026-05-06 18:16 45.44151 18.76825 1852 ft 187 kts 290°
2026-05-06 18:17 45.44630 18.75107 1835 ft 187 kts 290°
2026-05-06 18:17 45.45112 18.73384 1864 ft 187 kts 290°
2026-05-06 18:17 45.45667 18.71836 1865 ft 167 kts 313°
2026-05-06 18:17 45.46690 18.71334 1784 ft 156 kts
2026-05-06 18:18 45.47645 18.71993 1456 ft 155 kts 47°
2026-05-06 18:18 45.48103 18.73282 1268 ft 140 kts 82°
2026-05-06 18:18 45.48034 18.74622 1056 ft 133 kts 111°
2026-05-06 18:18 45.47643 18.75799 827 ft 131 kts 113°
2026-05-06 18:19 45.47322 18.77026 676 ft 132 kts 109°
2026-05-06 18:19 45.46994 18.78253 513 ft 133 kts 109°
2026-05-06 18:19 45.46669 18.79494 358 ft 134 kts 109°
2026-05-06 18:19 45.46363 18.80672 293 ft 113 kts 111°
2026-05-06 18:20 45.46074 18.81750 294 ft 149 kts 110°
2026-05-06 18:20 45.45656 18.83337 1033 ft 182 kts 111°
2026-05-06 18:20 45.45161 18.85067 1706 ft 193 kts 113°
2026-05-06 18:20 45.44670 18.86800 1769 ft 186 kts 114°
2026-05-06 18:21 45.44050 18.88392 1880 ft 184 kts 139°
2026-05-06 18:21 45.42879 18.88935 1831 ft 181 kts 188°
2026-05-06 18:21 45.41854 18.88000 1784 ft 182 kts 237°
2026-05-06 18:21 45.41667 18.86253 1755 ft 186 kts 284°
2026-05-06 18:22 45.42169 18.84547 1725 ft 187 kts 290°
2026-05-06 18:22 45.42665 18.82834 1729 ft 187 kts 290°
2026-05-06 18:22 45.43148 18.81120 1750 ft 187 kts 290°
2026-05-06 18:22 45.43646 18.79410 1777 ft 187 kts 291°
2026-05-06 18:23 45.44128 18.77692 1786 ft 186 kts 289°
2026-05-06 18:23 45.44610 18.75983 1800 ft 187 kts 290°
2026-05-06 18:23 45.45112 18.74270 1850 ft 188 kts 291°
2026-05-06 18:23 45.45641 18.72639 1875 ft 171 kts 301°
2026-05-06 18:24 45.46552 18.71728 1733 ft 159 kts 347°
2026-05-06 18:24 45.47603 18.71959 1511 ft 151 kts 26°
2026-05-06 18:24 45.48376 18.72895 1340 ft 141 kts 58°
2026-05-06 18:24 45.48389 18.74172 1138 ft 130 kts 123°
2026-05-06 18:25 45.47885 18.75238 979 ft 130 kts 120°
2026-05-06 18:25 45.47495 18.76413 781 ft 131 kts 115°
2026-05-06 18:25 45.47158 18.77618 596 ft 131 kts 108°
2026-05-06 18:25 45.46845 18.78850 446 ft 133 kts 110°
2026-05-06 18:26 45.46515 18.80081 301 ft 129 kts 109°
2026-05-06 18:26 45.46233 18.81147 296 ft 115 kts 111°
2026-05-06 18:26 45.45853 18.82618 621 ft 185 kts 110°
2026-05-06 18:26 45.45367 18.84384 1658 ft 200 kts 113°
2026-05-06 18:27 45.44856 18.86237 1794 ft 194 kts 113°
2026-05-06 18:27 45.44346 18.87980 1877 ft 187 kts 123°
2026-05-06 18:27 45.43349 18.89042 1845 ft 181 kts 168°
2026-05-06 18:27 45.42163 18.88698 1805 ft 179 kts 216°
2026-05-06 18:28 45.41566 18.87210 1816 ft 183 kts 263°
2026-05-06 18:28 45.41878 18.85466 1823 ft 186 kts 293°
2026-05-06 18:28 45.42367 18.83765 1814 ft 186 kts 290°
2026-05-06 18:28 45.42857 18.82070 1808 ft 185 kts 290°
2026-05-06 18:29 45.43339 18.80366 1797 ft 186 kts 290°
2026-05-06 18:29 45.43835 18.78668 1802 ft 186 kts 291°
2026-05-06 18:29 45.44321 18.76969 1814 ft 185 kts 289°
2026-05-06 18:29 45.44792 18.75267 1819 ft 186 kts 290°
2026-05-06 18:30 45.45283 18.73564 1860 ft 185 kts 290°
2026-05-06 18:30 45.45806 18.72023 1859 ft 163 kts 306°
2026-05-06 18:30 45.46752 18.71305 1704 ft 156 kts 356°
2026-05-06 18:30 45.47729 18.71804 1471 ft 149 kts 44°
2026-05-06 18:31 45.48157 18.73022 1428 ft 136 kts 85°
2026-05-06 18:31 45.48089 18.74346 1176 ft 132 kts 109°
2026-05-06 18:31 45.47734 18.75533 895 ft 130 kts 116°
2026-05-06 18:31 45.47384 18.76721 679 ft 130 kts 109°
2026-05-06 18:32 45.47080 18.77944 539 ft 132 kts 107°
2026-05-06 18:32 45.46756 18.79177 395 ft 134 kts 108°
2026-05-06 18:32 45.46436 18.80390 297 ft 121 kts 111°
2026-05-06 18:32 45.46158 18.81431 294 ft 125 kts 111°
2026-05-06 18:33 45.45761 18.82964 742 ft 183 kts 110°
2026-05-06 18:33 45.45276 18.84718 1847 ft 199 kts 113°
2026-05-06 18:33 45.44770 18.86598 2585 ft 211 kts 112°
2026-05-06 18:33 45.44242 18.88634 3433 ft 227 kts 111°
2026-05-06 18:34 45.43699 18.90805 4369 ft 239 kts 111°
2026-05-06 18:34 45.43151 18.93082 5378 ft 247 kts 110°
2026-05-06 18:34 45.42604 18.95441 6430 ft 254 kts 110°
2026-05-06 18:34 45.42067 18.97856 7474 ft 259 kts 110°
2026-05-06 18:35 45.41539 19.00325 8579 ft 262 kts 110°
2026-05-06 18:35 45.41034 19.02788 9718 ft 264 kts 110°
2026-05-06 18:35 45.40794 19.05381 10788 ft 270 kts 87°
2026-05-06 18:35 45.41366 19.07925 11895 ft 272 kts 65°
2026-05-06 18:36 45.42266 19.10275 13043 ft 269 kts 61°
2026-05-06 18:36 45.43468 19.12265 14190 ft 265 kts 34°
2026-05-06 18:36 45.45128 19.13213 15239 ft 253 kts
2026-05-06 18:36 45.46798 19.12915 16336 ft 235 kts 331°
2026-05-06 18:37 45.48102 19.11553 16968 ft 240 kts 302°
2026-05-06 18:37 45.48650 19.10122 17201 ft 250 kts 283°
2026-05-06 18:37 45.48865 19.06712 17670 ft 276 kts 266°
2026-05-06 18:37 45.48820 19.03909 18282 ft 288 kts 266°
2026-05-06 18:38 45.49056 19.01041 18968 ft 299 kts 286°
2026-05-06 18:38 45.50081 18.98430 19749 ft 309 kts 308°
2026-05-06 18:38 45.51714 18.96399 20515 ft 317 kts 325°
2026-05-06 18:38 45.53783 18.95224 21287 ft 327 kts 347°
2026-05-06 18:39 45.56074 18.95278 22059 ft 337 kts 11°
2026-05-06 18:39 45.58249 18.96600 22821 ft 344 kts 27°
2026-05-06 18:39 45.60357 18.98260 23559 ft 349 kts 27°
2026-05-06 18:40 45.64634 19.01642 23902 ft 353 kts 26°
2026-05-06 18:40 45.66862 19.03390 23932 ft 377 kts 26°
2026-05-06 18:40 45.69200 19.05214 23927 ft 386 kts 26°
2026-05-06 18:40 45.71567 19.07061 23931 ft 389 kts 26°
2026-05-06 18:41 45.73945 19.08919 23932 ft 390 kts 26°
2026-05-06 18:41 45.76331 19.10787 23931 ft 390 kts 26°
2026-05-06 18:41 45.78710 19.12655 23934 ft 390 kts 27°
2026-05-06 18:41 45.81084 19.14520 23934 ft 390 kts 27°
2026-05-06 18:42 45.83459 19.16389 23932 ft 389 kts 27°
2026-05-06 18:42 45.85033 19.17630 23931 ft 389 kts 27°
2026-05-06 18:42 45.87406 19.19505 23932 ft 389 kts 27°
2026-05-06 18:42 45.89781 19.21380 23933 ft 390 kts 27°
2026-05-06 18:43 45.92154 19.23255 23938 ft 390 kts 27°
2026-05-06 18:43 45.94529 19.25133 23941 ft 390 kts 27°
2026-05-06 18:43 45.96909 19.27013 23947 ft 390 kts 27°
2026-05-06 18:43 45.99288 19.28895 23951 ft 390 kts 27°
2026-05-06 18:44 46.01663 19.30773 23954 ft 390 kts 27°
2026-05-06 18:44 46.04037 19.32654 23956 ft 389 kts 27°
2026-05-06 18:44 46.06409 19.34536 23957 ft 389 kts 27°
2026-05-06 18:44 46.08779 19.36420 23957 ft 389 kts 27°
2026-05-06 18:45 46.11146 19.38306 23960 ft 389 kts 27°
2026-05-06 18:45 46.13515 19.40196 23959 ft 389 kts 27°
2026-05-06 18:45 46.15877 19.42086 23958 ft 389 kts 27°
2026-05-06 18:45 46.18241 19.43976 23958 ft 389 kts 27°
2026-05-06 18:46 46.20606 19.45867 23960 ft 388 kts 27°
2026-05-06 18:46 46.22971 19.47753 23959 ft 388 kts 27°
2026-05-06 18:46 46.25338 19.49642 23958 ft 388 kts 27°
2026-05-06 18:46 46.27703 19.51532 23957 ft 388 kts 27°
2026-05-06 18:47 46.30064 19.53426 23960 ft 388 kts 27°
2026-05-06 18:47 46.32421 19.55321 23962 ft 388 kts 27°
2026-05-06 18:47 46.34782 19.57222 23959 ft 388 kts 27°
2026-05-06 18:47 46.37144 19.59126 23955 ft 389 kts 27°
2026-05-06 18:48 46.39506 19.61030 23948 ft 389 kts 27°
2026-05-06 18:48 46.41840 19.62913 23949 ft 389 kts 27°
2026-05-06 18:48 46.44203 19.64818 23949 ft 389 kts 27°
2026-05-06 18:48 46.46566 19.66727 23950 ft 389 kts 27°
2026-05-06 18:49 46.48932 19.68639 23956 ft 389 kts 27°
2026-05-06 18:49 46.51294 19.70548 23955 ft 389 kts 27°
2026-05-06 18:49 46.53662 19.72462 23954 ft 389 kts 27°
2026-05-06 18:49 46.56023 19.74378 23953 ft 389 kts 27°
2026-05-06 18:50 46.58389 19.76297 23949 ft 389 kts 27°
2026-05-06 18:50 46.60755 19.78221 23949 ft 389 kts 28°
2026-05-06 18:50 46.63113 19.80143 23941 ft 389 kts 28°
2026-05-06 18:50 46.65477 19.82073 23940 ft 389 kts 28°
2026-05-06 18:51 46.67837 19.84002 23944 ft 389 kts 28°
2026-05-06 18:51 46.70207 19.85894 23947 ft 388 kts 24°
2026-05-06 18:51 46.72759 19.87039 23958 ft 383 kts
2026-05-06 18:51 46.75396 19.87016 23953 ft 377 kts 347°
2026-05-06 18:52 46.77907 19.86015 23952 ft 374 kts 339°
2026-05-06 18:52 46.80392 19.84866 23949 ft 375 kts 339°
2026-05-06 18:52 46.82876 19.83714 23947 ft 375 kts 339°
2026-05-06 18:52 46.85362 19.82567 23945 ft 375 kts 339°
2026-05-06 18:53 46.87852 19.81417 23942 ft 375 kts 339°
2026-05-06 18:53 46.90338 19.80263 23941 ft 376 kts 339°
2026-05-06 18:53 46.92854 19.79090 23464 ft 383 kts 339°
2026-05-06 18:53 46.95399 19.77902 22853 ft 382 kts 339°
2026-05-06 18:54 46.97921 19.76732 22388 ft 377 kts 340°
2026-05-06 18:54 47.00408 19.75580 21928 ft 373 kts 340°
2026-05-06 18:54 47.02865 19.74441 21455 ft 368 kts 339°
2026-05-06 18:54 47.05297 19.73311 20991 ft 364 kts 339°
2026-05-06 18:55 47.07696 19.72194 20526 ft 361 kts 339°
2026-05-06 18:55 47.10079 19.71085 20074 ft 357 kts 339°
2026-05-06 18:55 47.12438 19.69989 19610 ft 354 kts 339°
2026-05-06 18:55 47.14748 19.68911 19172 ft 351 kts 339°
2026-05-06 18:56 47.17067 19.67823 18714 ft 349 kts 339°
2026-05-06 18:56 47.19373 19.66737 18255 ft 347 kts 339°
2026-05-06 18:56 47.21663 19.65658 17771 ft 344 kts 339°
2026-05-06 18:56 47.23932 19.64591 17332 ft 341 kts 339°
2026-05-06 18:57 47.26177 19.63535 16888 ft 337 kts 339°
2026-05-06 18:57 47.28401 19.62485 16456 ft 334 kts 339°
2026-05-06 18:57 47.30607 19.61446 16025 ft 332 kts 339°
2026-05-06 18:57 47.32791 19.60401 15596 ft 328 kts 336°
2026-05-06 18:58 47.34804 19.58915 15177 ft 321 kts 323°
2026-05-06 18:58 47.36514 19.56858 14764 ft 314 kts 311°
2026-05-06 18:58 47.37985 19.54498 14375 ft 311 kts 309°
2026-05-06 18:58 47.39444 19.52154 13983 ft 309 kts 309°
2026-05-06 18:59 47.40897 19.49829 13572 ft 307 kts 310°
2026-05-06 18:59 47.42341 19.47517 13174 ft 305 kts 309°
2026-05-06 18:59 47.43770 19.45229 12776 ft 302 kts 309°
2026-05-06 18:59 47.45183 19.42961 12396 ft 298 kts 308°
2026-05-06 19:00 47.46578 19.40713 12016 ft 295 kts 308°
2026-05-06 19:00 47.47958 19.38484 11647 ft 293 kts 308°
2026-05-06 19:00 47.49325 19.36273 11278 ft 290 kts 308°
2026-05-06 19:00 47.50684 19.34081 10895 ft 288 kts 308°
2026-05-06 19:01 47.52040 19.31896 10531 ft 287 kts 308°
2026-05-06 19:01 47.53389 19.29723 10157 ft 286 kts 308°
2026-05-06 19:01 47.54729 19.27556 9823 ft 284 kts 308°
2026-05-06 19:01 47.56049 19.25416 9502 ft 280 kts 308°
2026-05-06 19:02 47.57355 19.23293 9140 ft 278 kts 308°
2026-05-06 19:02 47.58655 19.21179 8777 ft 276 kts 308°
2026-05-06 19:02 47.59943 19.19082 8410 ft 275 kts 307°
2026-05-06 19:02 47.61230 19.16988 8033 ft 274 kts 307°
2026-05-06 19:03 47.62516 19.14894 7644 ft 274 kts 307°
2026-05-06 19:03 47.63799 19.12805 7266 ft 274 kts 307°
2026-05-06 19:03 47.65056 19.10767 6993 ft 262 kts 306°
2026-05-06 19:03 47.65987 19.08580 6731 ft 242 kts 282°
2026-05-06 19:04 47.66133 19.06146 6619 ft 236 kts 256°
2026-05-06 19:04 47.65523 19.03906 6062 ft 239 kts 231°
2026-05-06 19:04 47.64321 19.02168 5512 ft 244 kts 221°
2026-05-06 19:04 47.62954 19.00681 4958 ft 249 kts 208°
2026-05-06 19:05 47.61296 18.99951 4626 ft 249 kts 189°
2026-05-06 19:05 47.59585 19.00098 4407 ft 247 kts 171°
2026-05-06 19:05 47.57999 19.01086 4146 ft 250 kts 152°
2026-05-06 19:05 47.56696 19.02826 3835 ft 254 kts 138°
2026-05-06 19:06 47.55508 19.04775 3503 ft 253 kts 137°
2026-05-06 19:06 47.54358 19.06665 3176 ft 241 kts 137°
2026-05-06 19:06 47.53292 19.08409 2895 ft 221 kts 137°
2026-05-06 19:06 47.52276 19.10058 2617 ft 212 kts 138°
2026-05-06 19:07 47.51306 19.11634 2353 ft 203 kts 139°
2026-05-06 19:07 47.50392 19.13122 2099 ft 187 kts 138°
2026-05-06 19:07 47.49568 19.14464 1870 ft 163 kts 138°
2026-05-06 19:07 47.48865 19.15609 1658 ft 141 kts 139°
2026-05-06 19:08 47.48224 19.16645 1466 ft 133 kts 139°
2026-05-06 19:08 47.47613 19.17624 1300 ft 130 kts 138°
2026-05-06 19:08 47.47006 19.18604 1123 ft 127 kts 135°
2026-05-06 19:08 47.46427 19.19580 936 ft 127 kts 135°
2026-05-06 19:09 47.45828 19.20530 742 ft 126 kts 135°
2026-05-06 19:09 47.45240 19.21489 598 ft 126 kts 133°
2026-05-06 19:09 47.44644 19.22451 466 ft 126 kts 134°
2026-05-06 19:09 47.44136 19.23263 454 ft 85 kts 131°
2026-05-06 19:10 47.43841 19.23742 455 ft 39 kts 132°
2026-05-06 19:10 47.43722 19.23990 453 ft 30 kts 114°
2026-05-06 19:10 47.43665 19.24295 457 ft 32 kts 103°
2026-05-06 19:10 47.43589 19.24547 457 ft 27 kts 124°
2026-05-06 19:11 47.43480 19.24730 457 ft 18 kts 132°
2026-05-06 19:11 47.43404 19.24853 457 ft 18 kts 132°
2026-05-06 19:11 47.43313 19.25000 457 ft 21 kts 132°
2026-05-06 19:11 47.43236 19.25162 458 ft 18 kts 100°
2026-05-06 19:12 47.43291 19.25317 458 ft 19 kts 43°
2026-05-06 19:12 47.43398 19.25460 458 ft 23 kts 42°
2026-05-06 19:12 47.43514 19.25615 458 ft 13 kts 42°
2026-05-06 19:12 47.43529 19.25738 458 ft 11 kts 128°
2026-05-06 19:13 47.43494 19.25820 458 ft 10 kts 88°
2026-05-06 19:13 47.43531 19.25848 458 ft 5 kts 332°
2026-05-06 19:13 47.43551 19.25821 458 ft 3 kts 314°
2026-05-06 19:13 47.43552 19.25820 458 ft 0 kts 314°